Regional Weather Roundup
Issued by NWS

Home | Current Version | Previous Version | Graphics & Text | Print | Product List | Glossary On
Versions: 1 2 3 4 5 6 7 8 9 10 11 12 13 14 15 16 17 18 19 20 21 22 23 24 25 26 27 28 29 30 31 32 33 34 35 36 37 38 39 40 41 42 43 44 45 46 47 48 49 50
569
ASUS43 KDMX 210306
RWRIA

WEATHER ROUNDUP FOR IOWA
NATIONAL WEATHER SERVICE DES MOINES IA
1000 PM CDT SUN AUG 20 2017

NOTE: "FAIR" INDICATES FEW OR NO CLOUDS BELOW 12,000 FEET WITH NO
SIGNIFICANT WEATHER AND/OR OBSTRUCTIONS TO VISIBILITY.

* - THESE STATIONS ARE NOT NWS STATIONS...THUS NOT UNDER NWS
QUALITY CONTROL.  THEY ALSO DO NOT REPORT WEATHER SUCH
AS PRECIPITATION OR FOG.

IAZ001>003-012>014-020>022-031>034-043>046-210400-
   NORTHWEST IOWA

CITY           SKY/WX    TMP DP  RH WIND       PRES   REMARKS
CARROLL *      CLOUDY    73  73 100 S6        30.01R
CHEROKEE *     CLOUDY    75  72  89 CALM      30.00R
DENISON *      CLOUDY    72  70  94 E5        30.01R
LE MARS *      CLOUDY   102 N/A N/A CALM      29.99R
ORANGE CITY *  PTCLDY    79  72  78 CALM      30.01R HX  82
SHELDON *      CLOUDY    72  68  88 NE10G17   30.00R
SIOUX CITY     CLOUDY    77  70  79 E6        29.98R
SPENCER        PTCLDY    74  71  91 NE8       30.02R
STORM LAKE *   MOCLDY    73  68  83 CALM      30.02R
$$

IAZ055>058-069>071-079>083-090>094-210400-
   SOUTHWEST IOWA

CITY           SKY/WX    TMP DP  RH WIND       PRES   REMARKS
ATLANTIC *     PTCLDY    72  68  88 E5        30.00R
AUDUBON *      MOCLDY    72  70  94 CALM      30.03R
CLARINDA *       N/A     72  66  83 CALM      30.02R
COUNCIL BLFS * CLOUDY    72  72 100 E7        29.98R
CRESTON *      CLEAR     66  64  94 E6G13     30.05R
HARLAN  *      MOCLDY    72  70  94 E5        30.03R
LAMONI         PTCLDY    68  65  90 E5        30.03R
RED OAK *      CLOUDY    72  68  88 E6        29.99R
SHENANDOAH *   CLEAR     72  68  88 E5        29.99R
$$

IAZ047>049-059>061-072>074-084-210400-
   CENTRAL IOWA

CITY           SKY/WX    TMP DP  RH WIND       PRES   REMARKS
AMES           MOCLDY    71  71 100 S5        30.02R
ANKENY *       CLOUDY    72  70  94 CALM      30.03R
BOONE *        PTCLDY    70  68  94 S5        30.01R
CHARITON *     CLEAR     68  66  94 S3        30.03R
DES MOINES     MOCLDY    73  66  78 S5        30.02R
GRINNELL*      PTCLDY    69  66  90 S3        30.04R
KNOXVILLE *    PTCLDY    72  66  83 SW6       30.02R
MARSHALLTOWN   MOCLDY    71  68  90 S5        30.01R
NEWTON *       PTCLDY    68  66  94 S3        30.02R
PELLA *        PTCLDY    71  67  88 S3        30.03R
PERRY *        MOCLDY    70  69  98 S3        30.02R
$$

IAZ004>006-015-016-023>025-035-036-210400-
   NORTH CENTRAL IOWA

CITY           SKY/WX    TMP DP  RH WIND       PRES   REMARKS
ALGONA *       CLEAR     73  72  94 E3        30.02R
CLARION *      CLEAR     72  72 100 SE8       30.02R
ESTHERVILLE    PTCLDY    72  70  93 N10       30.02R
FORT DODGE *   CLEAR     72  66  83 E6        30.02R
MASON CITY     CLEAR     68  65  90 CALM      30.03R
FOREST CITY *    N/A     68  68 100 CALM      30.02R
WEBSTER CITY * CLEAR     72  70  94 SE5       30.00R
IOWA FALLS *   MOCLDY    71  68  90 S5        30.03R
$$

IAZ007>011-017>019-026>030-037>042-050>054-066-210400-
   NORTHEAST IOWA

CITY           SKY/WX    TMP DP  RH WIND       PRES   REMARKS
CEDAR RAPIDS   CLEAR     70  68  93 NE6       30.01R
CHARLES CITY * CLEAR     70  70 100 CALM      30.02R
CLINTON *      CLEAR     69  68  96 E7        30.01S
DECORAH *      PTCLDY    70  66  88 SE3       30.04R
DUBUQUE        CLEAR     67  65  93 NE5       30.03R
MONTICELLO *   CLEAR     64  64 100 CALM      30.01R
OELWEIN *      CLEAR     68  68 100 SE5       30.03S
WATERLOO       CLEAR     68  65  90 CALM      30.00R
$$

IAZ064-065-067-068-078-210400-
   EAST CENTRAL IOWA

CITY           SKY/WX    TMP DP  RH WIND       PRES   REMARKS
DAVENPORT      CLEAR     70  68  93 E7        30.02R
IOWA CITY      CLEAR     74  69  85 CALM      30.02R
MT. PLEASANT * PTCLDY    68  67  97 SW5       30.02R
MUSCATINE *    CLEAR     72  68  88 CALM      30.00R
QUAD CITIES    CLEAR     72  68  87 SE3       30.00R
$$

IAZ062-063-075>077-085>089-095>099-210400-
   SOUTHEAST IOWA

CITY           SKY/WX    TMP DP  RH WIND       PRES   REMARKS
BURLINGTON     CLEAR     72  70  93 SW6       30.02R
FAIRFIELD *    CLOUDY    70  66  88 W3        30.02R
FORT MADISON * PTCLDY    73  70  88 CALM      30.03R
KEOKUK *       PTCLDY    73  68  83 CALM      30.02R
OSKALOOSA *      N/A     65  64  94 CALM      30.03R
CENTERVILLE *    N/A     66  66 100 CALM      30.05R
OTTUMWA        MOCLDY    70  67  90 S6        30.01R
WASHINGTON *   CLEAR     70  68  94 W7        30.03R
$$

ABBREVIATIONS USED IN REMARKS
   TC - TEMPERATURES IN CELSIUS
  WCI - WIND CHILL INDEX
   HX - HEAT INDEX
  VSB - VISIBILITY
$$





USA.gov is the U.S. government's official web portal to all federal, state and local government web resources and services.